Location: Newport
(44.6370°N, 124.0520°W)
Time: 02:42:00
(UTC-07:00)

Tiangong 1 - Pass Details

Date: 08 October 2017
Orbit: 294 x 321 km, 42.8° (Epoch: 17 October)

Event Time Altitude Azimuth Distance (km) Brightness Sun altitude
Rises 20:33:36 0° 264° (W) 2,033 6.1 -20.4°
Reaches altitude 10° 20:35:36 10° 260° (W) 1,199 4.5 -20.7°
Enters shadow 20:37:08 29° 247° (WSW) 601 2.5 -21.0°
